Regional Weather Roundup
Issued by NWS Newport/Morehead, NC

Current Version | Previous Version | Graphics & Text | Print | Product List | Glossary Off
Versions: 1 2 3 4 5 6 7 8 9 10 11 12 13 14 15 16 17 18 19 20 21 22 23 24 25 26 27 28 29 30 31 32 33 34 35 36 37 38 39 40 41 42 43 44 45 46 47 48 49 50
000 ASUS42 KMHX 042213 RWRMHX WEATHER ROUNDUP FOR EASTERN NORTH CAROLINA NATIONAL WEATHER SERVICE NEWPORT/MOREHEAD CITY NC 500 PM EST WED MAR 04 2015 NOTE: "FAIR" INDICATES FEW OR NO CLOUDS BELOW 12,000 FEET WITH NO SIGNIFICANT WEATHER AND/OR OBSTRUCTIONS TO VISIBILITY NCZ015>017-031-032-045>047-102-103-042300- NORTH COAST CITY SKY/WX TMP DP RH WIND PRES REMARKS EDENTON NOT AVBL ELIZABETH CITY NOT AVBL KITTY HAWK NOT AVBL MANTEO NOT AVBL $$ NCZ045>047-081-094-103-104-042300- CENTRAL COAST CITY SKY/WX TMP DP RH WIND PRES REMARKS FRISCO NOT AVBL SWANQUARTER N/A 59 N/A N/A SW18 29.88S $$ NCZ095-097-098-100-101-042300- SOUTHERN COAST CITY SKY/WX TMP DP RH WIND PRES REMARKS BEAUFORT NOT AVBL CEDAR ISLAND N/A 66 N/A N/A S13G28 30.00S JACKSONVILLE NOT AVBL PINEY ISLAND N/A N/A N/A N/A MISG 29.95F WILMINGTON NOT AVBL $$ NCZ011>013-027>030-043-044-078>080-089-090>093-098-042300- COASTAL PLAIN CITY SKY/WX TMP DP RH WIND PRES REMARKS AHOSKIE NOT AVBL CLINTON NOT AVBL ELIZABETHTOWN NOT AVBL GOLDSBORO NOT AVBL GREENVILLE NOT AVBL HAVELOCK NOT AVBL KENANSVILLE NOT AVBL KINSTON NOT AVBL NEW BERN NOT AVBL RICHLANDS NOT AVBL ROCKY MOUNT NOT AVBL WASHINGTON NOT AVBL WHITEVILLE NOT AVBL $$ AMZ130-135-150-152-154-156-158-170-250-252-270-ANZ085-086-088-633-658-670-042300- MARINE OBSERVATIONS STATION/POSITION TIME TEMP WIND PRES WAVE SWELL AIR SEA DIR/SP/G HT/PER HT/PER (UTC) (F) (DEG/KT/KT) (MB) (FT/S) (FT/S) CHESAPEAKE LIGHT 2100 49 150/ 3/ 4 1012.8 64 E VA BEACH 2150 55 54 220/ 10/ 12 1012.6 5/ 7 5/ 7 DUCK 2100 55 36 150/ 3/ 4 1011.8 2 E DUCK 2111 38 N/A 3/ 9 2/11 10 NE DUCK 2122 40 N/A 4/ 7 2/12 OREGON INLET 2100 51 46 190/ 16/ 18 1013.7 HATTERAS CG 2100 56 46 220/ 10/ 14 1015.3 CAPE LOOKOUT 2100 64 210/ 16/ 22 1015.4 BEAUFORT LAB 2100 58 46 210/ 10/ 17 1014.4 27 SE WRIGHTSVLE NOT AVBL 5 SE WRIGHTSVLE NOT AVBL 225 S CAPE HAT 2050 73 73 220/ 17/ 21 1021.3 6/10 3/10 41 SE CHARLESTON 2150 70 69 200/ 19/ 23 1015.8 5/ 6 3/ 9 $$

USA.gov is the U.S. government's official web portal to all federal, state and local government web resources and services.